Regional Weather Roundup
Issued by NWS

Home | Current Version | Previous Version | Text Only | Print | Product List | Glossary Off
Versions: 1 2 3 4 5 6 7 8 9 10 11 12 13 14 15 16 17 18 19 20 21 22 23 24 25 26 27 28 29 30 31 32 33 34 35 36 37 38 39 40 41 42 43 44 45 46 47 48 49 50

558
ASUS43 KBIS 232210
RWRND

NORTH DAKOTA REGIONAL WEATHER ROUNDUP
NATIONAL WEATHER SERVICE BISMARCK ND
400 PM CST THU FEB 23 2017

NOTE: "FAIR" INDICATES FEW OR NO CLOUDS BELOW 12,000 FEET WITH NO
SIGNIFICANT WEATHER AND/OR OBSTRUCTIONS TO VISIBILITY.


NDZ001>003-009>011-017-232300-
NORTHWEST NORTH DAKOTA

CITY           SKY/WX    TMP DP  RH WIND       PRES   REMARKS
WILLISTON      FAIR      28  19  69 NE7       30.10S
MINOT          FAIR      27  15  61 N12       30.10R WCI  17
MINOT AFB      SUNNY     24  14  65 N9        30.09R WCI  14
$$

NDZ018>021-031>035-040>046-232300-
SOUTHWEST NORTH DAKOTA

CITY           SKY/WX    TMP DP  RH WIND       PRES   REMARKS
BISMARCK       CLOUDY    29  25  85 N17       30.05R WCI  17
DICKINSON      CLOUDY    22  21  96 NE14      30.00S FOG     WCI   9
GARRISON         N/A     25  12  58 N12       30.06S WCI  14
HETTINGER ARPT CLOUDY    29  25  85 N17       29.98S FOG     WCI  17
$$

NDZ004>008-012>016-024-026-027-054-232300-
NORTHEAST NORTH DAKOTA

CITY           SKY/WX    TMP DP  RH WIND       PRES   REMARKS
GRAND FORKS    CLOUDY    26  12  55 N15       30.10R WCI  14
GRND FRKS AFB  CLOUDY    25  16  70 NE15      30.10R WCI  12
DEVILS LAKE    CLOUDY    24  20  84 NE9       30.08R WCI  14
$$

NDZ022-023-025-028>030-036>039-047>053-232300-
SOUTHEAST NORTH DAKOTA

CITY           SKY/WX    TMP DP  RH WIND       PRES   REMARKS
FARGO          CLOUDY    30  21  69 N17G24    30.05R WCI  18
JAMESTOWN      CLOUDY    29  25  85 NE12      30.02R WCI  19
$$





USA.gov is the U.S. government's official web portal to all federal, state and local government web resources and services.